Regional Weather Roundup
Issued by NWS Bismarck, ND

Home | Current Version | Previous Version | Text Only | Print | Product List | Glossary On
Versions: 1 2 3 4 5 6 7 8 9 10 11 12 13 14 15 16 17 18 19 20 21 22 23 24 25 26 27 28 29 30 31 32 33 34 35 36 37 38 39 40 41 42 43 44 45 46 47 48 49 50
000
ASUS43 KBIS 221510
RWRBIS

NWR BROADCAST TEXT
NATIONAL WEATHER SERVICE BISMARCK ND
1000 AM CDT TUE AUG 22 2017

NOTE: "FAIR" INDICATES FEW OR NO CLOUDS BELOW 12,000 FEET WITH NO
SIGNIFICANT WEATHER AND/OR OBSTRUCTIONS TO VISIBILITY.


CITY           SKY/WX    TMP DP  RH WIND       PRES   REMARKS
WILLISTON      SUNNY     59  44  57 S6        30.21S
MINOT          SUNNY     67  42  40 W14       30.17S
MINOT AFB        N/A     66  40  38 NW14      30.16R
BISMARCK       SUNNY     62  48  60 W5        30.21R
DICKINSON      SUNNY     66  40  38 S3        30.22S
GARRISON         N/A     65  44  46 NW10      30.19S
HETTINGER ARPT SUNNY     64  43  46 CALM      30.25S
JAMESTOWN      SUNNY     65  50  58 NW10      30.15R
CARRINGTON     FAIR      63  46  55 NW12      30.18R
HAZEN          FAIR      59  48  67 W9        30.23R
LINTON         FAIR      61  45  55 NW6       30.23S
MANDAN         FAIR      61  46  59 W6G13     30.22R
RUGBY          FAIR      59  46  63 W8        30.15S
STANLEY        FAIR      63  37  39 NW9       30.23S
TIOGA          FAIR      61  39  44 CALM      30.22S
WATFORD CITY   FAIR      63  39  42 SW7       30.21S
$$

CITY           SKY/WX    TMP DP  RH WIND       PRES   REMARKS
GRAND FORKS    SUNNY     68  49  50 NW13      30.05S
GRAND FORKS AF SUNNY     67  47  48 NW14      30.06S
DEVILS LAKE    SUNNY     63  46  54 W15       30.13S
FARGO          SUNNY     65  51  60 NW12      30.08R
CANDO          FAIR      64  46  52 W14       30.15R
CAVALIER       FAIR      63  48  59 NW12G17   30.04R
GRAFTON        FAIR      66  48  52 NW15      30.06R
GWINNER        SUNNY     63  50  63 W9        30.14R
LANGDON        FAIR      63  50  63 NW13G20   30.09S
ROLLA          FAIR      64  43  45 NW14      30.14R
WALHALLA       FAIR      64  61  88 NW14      30.05S
$$

CITY           SKY/WX    TMP DP  RH WIND       PRES   REMARKS
ABERDEEN       SUNNY     65  49  56 W12       30.18R
MOBRIDGE       SUNNY     62  51  67 W6        30.20R
BUFFALO          N/A     62  43  49 S6        30.18S
RAPID CITY     SUNNY     65  45  48 SE12      30.25S
SIDNEY         SUNNY     56  43  61 S3        30.22S
WOLF POINT     SUNNY     61  35  37 E5        30.21S
GLENDIVE       SUNNY     64  37  36 SE3       30.22F
MILES CITY     SUNNY     66  36  32 E6        30.19R
BAKER          CLOUDY    65  38  36 SE6       30.23S
$$

CITY           SKY/WX    TMP DP  RH WIND       PRES   REMARKS
BILLINGS       MOSUNNY   58  38  47 SW7       30.21R
GREAT FALLS    SUNNY     62  36  37 SW5       30.18S
REGINA         PTSUNNY   59  37  44 CALM      30.18S
ESTEVAN        MOSUNNY   61  41  48 W6        30.19S
$$




USA.gov is the U.S. government's official web portal to all federal, state and local government web resources and services.